Weather History for West Yellowstone, MT

Change the Weather History Date:

Friday, November 2, 2012

  Actual Average Record
Temperature  
Mean Temperature 30 °F -  
Max Temperature 37 °F 37 °F 50 °F (2010)
Min Temperature 23 °F 16 °F 0 °F (2011)
Degree Days  
Heating Degree Days 35    
Moisture  
Dew Point -    
Average Humidity    
Maximum Humidity    
Minimum Humidity    
Precipitation  
Precipitation 0.00 in - - ()
Sea Level Pressure  
Sea Level Pressure 30.13 in    
Wind  
Wind Speed 5 mph (SW)    
Max Wind Speed 12 mph    
Max Gust Speed 16 mph    
Visibility 10 miles    
Events      
Averages and records for this station are not official NWS values.
T = Trace of Precipitation, MM = Missing Value Source: NWS Daily Summary

Daily Weather History Graph

Daily Weather History Graph

Search for Another Location

Airport:

Trip Planner

Search our weather history database for the weather conditions in past years. The results will help you decide how hot, cold, wet, or windy it might be!

Date:

Astronomy

Nov. 02, 2012 Rise Set
Actual Time 8:04 AM MDT 6:11 PM MDT
Civil Twilight 7:33 AM MDT 6:41 PM MDT
Nautical Twilight 6:59 AM MDT 7:16 PM MDT
Astronomical Twilight 6:25 AM MDT 7:50 PM MDT
Moon 8:56 PM MDT (11/2) 11:32 AM MDT (11/2)
Length of Visible Light 11h 07m
Length of Day
10h 06m
Waning Gibbous, 87% of the Moon is Illuminated
Nov 2
Waning Gibbous
Nov 6
Last Quarter
Nov 13
New
Nov 20
First Quarter
Nov 28
Full

Hourly Weather History & Observations

Time (MDT) Temp. Windchill Dew Point Humidity Pressure Visibility Wind Dir Wind Speed Gust Speed Precip Events Conditions
12:10 AM 35.6 °F 27.5 °F - N/A% 30.05 in 10.0 mi SW 11.5 mph - N/A   Clear
12:30 AM 35.6 °F 28.0 °F - N/A% 30.05 in 10.0 mi SW 10.4 mph 16.1 mph N/A   Clear
12:50 AM 35.6 °F 29.9 °F - N/A% 30.06 in 10.0 mi WSW 6.9 mph - N/A   Clear
1:10 AM 33.8 °F 28.6 °F - N/A% 30.07 in 10.0 mi WSW 5.8 mph - N/A   Clear
1:30 AM 33.8 °F 27.0 °F - N/A% 30.07 in 10.0 mi SW 8.1 mph - N/A   Clear
1:50 AM 33.8 °F 26.4 °F - N/A% 30.07 in 10.0 mi SW 9.2 mph - N/A   Clear
2:10 AM 33.8 °F 29.6 °F - N/A% 30.08 in 10.0 mi SW 4.6 mph - N/A   Clear
2:30 AM 32.0 °F 24.8 °F - N/A% 30.08 in 10.0 mi SW 8.1 mph - N/A   Clear
2:50 AM 32.0 °F 23.6 °F - N/A% 30.08 in 10.0 mi SW 10.4 mph - N/A   Clear
3:10 AM 32.0 °F 23.6 °F - N/A% 30.09 in 10.0 mi SW 10.4 mph - N/A   Clear
3:30 AM 32.0 °F 26.4 °F - N/A% 30.09 in 10.0 mi North 5.8 mph - N/A   Scattered Clouds
3:50 AM 28.4 °F - - N/A% 30.10 in 10.0 mi Calm Calm - N/A   Mostly Cloudy
4:10 AM 26.6 °F - - N/A% 30.10 in 10.0 mi Calm Calm - N/A   Scattered Clouds
4:30 AM 26.6 °F - - N/A% 30.10 in 10.0 mi Calm Calm - N/A   Clear
4:50 AM 26.6 °F - - N/A% 30.10 in 10.0 mi Calm Calm - N/A   Clear
5:10 AM 26.6 °F 21.2 °F - N/A% 30.11 in 10.0 mi NNE 4.6 mph - N/A   Clear
5:30 AM 26.6 °F - - N/A% 30.10 in 10.0 mi Calm Calm - N/A   Partly Cloudy
5:50 AM 26.6 °F 21.2 °F - N/A% 30.11 in 10.0 mi NNE 4.6 mph - N/A   Clear
6:10 AM 26.6 °F 22.6 °F - N/A% 30.11 in 10.0 mi SW 3.5 mph - N/A   Clear
6:30 AM 26.6 °F - - N/A% 30.12 in 10.0 mi Calm Calm - N/A   Clear
6:50 AM 24.8 °F - - N/A% 30.12 in 10.0 mi Calm Calm - N/A   Clear
7:10 AM 24.8 °F 19.1 °F - N/A% 30.13 in 10.0 mi SSW 4.6 mph - N/A   Clear
7:30 AM 24.8 °F - - N/A% 30.14 in 10.0 mi Calm Calm - N/A   Clear
7:50 AM 23.0 °F - - N/A% 30.14 in 10.0 mi Calm Calm - N/A   Clear
8:10 AM 23.0 °F - - N/A% 30.15 in 10.0 mi Calm Calm - N/A   Scattered Clouds
8:30 AM 23.0 °F 18.4 °F - N/A% 30.16 in 10.0 mi SW 3.5 mph - N/A   Partly Cloudy
8:50 AM 24.8 °F 19.1 °F - N/A% 30.16 in 10.0 mi SW 4.6 mph - N/A   Clear
9:10 AM 26.6 °F 22.6 °F - N/A% 30.16 in 10.0 mi North 3.5 mph - N/A   Partly Cloudy
9:30 AM 28.4 °F 22.2 °F - N/A% 30.16 in 10.0 mi NNE 5.8 mph - N/A   Scattered Clouds
9:50 AM 28.4 °F - - N/A% 30.16 in 10.0 mi Calm Calm - N/A   Mostly Cloudy
10:10 AM 30.2 °F 26.7 °F - N/A% 30.17 in 10.0 mi East 3.5 mph - N/A   Partly Cloudy
10:30 AM 32.0 °F - - N/A% 30.17 in 10.0 mi Calm Calm - N/A   Clear
10:50 AM 33.8 °F - - N/A% 30.17 in 10.0 mi Calm Calm - N/A   Clear
11:10 AM 35.6 °F - - N/A% 30.17 in 10.0 mi Calm Calm - N/A   Partly Cloudy
11:30 AM 37.4 °F - - N/A% 30.17 in 10.0 mi Calm Calm - N/A   Mostly Cloudy
7:30 PM 37.4 °F 30.8 °F - N/A% 30.17 in 10.0 mi SSW 9.2 mph - N/A   Clear
7:50 PM 35.6 °F 29.9 °F - N/A% 30.17 in 10.0 mi SSW 6.9 mph - N/A   Scattered Clouds
8:10 PM 35.6 °F 28.6 °F - N/A% 30.17 in 10.0 mi SSW 9.2 mph - N/A   Scattered Clouds
8:30 PM 37.4 °F 32.1 °F - N/A% 30.17 in 10.0 mi SW 6.9 mph - N/A   Scattered Clouds
8:50 PM 37.4 °F 32.8 °F - N/A% 30.17 in 10.0 mi SW 5.8 mph - N/A   Clear
9:30 PM 35.6 °F 31.7 °F - N/A% 30.17 in 10.0 mi SSW 4.6 mph - N/A   Clear
9:50 PM 35.6 °F - - N/A% 30.18 in 10.0 mi Calm Calm - N/A   Clear
10:10 PM 32.0 °F - - N/A% 30.18 in 10.0 mi Calm Calm - N/A   Clear
10:30 PM 33.8 °F - - N/A% 30.18 in 10.0 mi Calm Calm - N/A   Clear
10:50 PM 32.0 °F - - N/A% 30.18 in 10.0 mi Calm Calm - N/A   Clear
11:10 PM 32.0 °F - - N/A% 30.18 in 10.0 mi Calm Calm - N/A   Scattered Clouds
11:30 PM 32.0 °F - - N/A% 30.19 in 10.0 mi Calm Calm - N/A   Mostly Cloudy
11:50 PM 32.0 °F - - N/A% 30.18 in 10.0 mi Calm Calm - N/A   Mostly Cloudy